******** Week 362 almanac for PRN-1 ******** ID: 1 Health: 0 Eccentricity: 0.001631736755 Time of Applicability(s): 503808 Orbital Inclination(rad): 0.9580752648 Rate of Right Ascen(r/s): -8.000333246e-09 SQRT(A) (m 1/2): 5153.573242 Right Ascen at Week(rad): 2.884004474 Argument of Perigee(rad): 0.1125865499 Mean Anom(rad): 2.839114938 Af0(s): 0.0002479588501 Af1(s/s): -7.275958e-12 week: 362 ******** Week 362 almanac for PRN-2 ******** ID: 2 Health: 0 Eccentricity: 0.01686477661 Time of Applicability(s): 503808 Orbital Inclination(rad): 0.9632105052 Rate of Right Ascen(r/s): -8.023191341e-09 SQRT(A) (m 1/2): 5153.535645 Right Ascen at Week(rad): 2.721603246 Argument of Perigee(rad): -0.80169259 Mean Anom(rad): -1.960196377 Af0(s): 4.898883057e-05 Af1(s/s): 7.275958e-12 week: 362 ******** Week 362 almanac for PRN-3 ******** ID: 3 Health: 0 Eccentricity: 0.006566524506 Time of Applicability(s): 503808 Orbital Inclination(rad): 0.9936624206 Rate of Right Ascen(r/s): -7.440309919e-09 SQRT(A) (m 1/2): 5153.57959 Right Ascen at Week(rad): -2.411995664 Argument of Perigee(rad): 1.203004959 Mean Anom(rad): 0.7334997287 Af0(s): 0.0004213039429 Af1(s/s): -1.455192e-11 week: 362 ******** Week 362 almanac for PRN-4 ******** ID: 4 Health: 0 Eccentricity: 0.00372171402 Time of Applicability(s): 503808 Orbital Inclination(rad): 0.9704310007 Rate of Right Ascen(r/s): -8.103194673e-09 SQRT(A) (m 1/2): 5153.663574 Right Ascen at Week(rad): -1.341639596 Argument of Perigee(rad): -2.872685373 Mean Anom(rad): -2.585095434 Af0(s): 3.919106445e-05 Af1(s/s): 0 week: 362 ******** Week 362 almanac for PRN-5 ******** ID: 5 Health: 0 Eccentricity: 0.005432605743 Time of Applicability(s): 503808 Orbital Inclination(rad): 0.9802221124 Rate of Right Ascen(r/s): -7.577458489e-09 SQRT(A) (m 1/2): 5153.673828 Right Ascen at Week(rad): -2.471954988 Argument of Perigee(rad): 1.417084786 Mean Anom(rad): -1.913715186 Af0(s): -0.0001823891846 Af1(s/s): 0 week: 362 ******** Week 362 almanac for PRN-6 ******** ID: 6 Health: 0 Eccentricity: 0.003836154938 Time of Applicability(s): 503808 Orbital Inclination(rad): 0.986915302 Rate of Right Ascen(r/s): -7.771752296e-09 SQRT(A) (m 1/2): 5153.603027 Right Ascen at Week(rad): 2.835050787 Argument of Perigee(rad): -0.5528109482 Mean Anom(rad): 2.037797978 Af0(s): -0.0004838589111 Af1(s/s): 0 week: 362 ******** Week 362 almanac for PRN-7 ******** ID: 7 Health: 0 Eccentricity: 0.02060270309 Time of Applicability(s): 503808 Orbital Inclination(rad): 0.9512322724 Rate of Right Ascen(r/s): -7.943188008e-09 SQRT(A) (m 1/2): 5153.564453 Right Ascen at Week(rad): -0.3328633449 Argument of Perigee(rad): -1.986402506 Mean Anom(rad): 1.185099403 Af0(s): -0.0001288783081 Af1(s/s): -3.637979e-12 week: 362 ******** Week 362 almanac for PRN-8 ******** ID: 8 Health: 0 Eccentricity: 0.01158332825 Time of Applicability(s): 503808 Orbital Inclination(rad): 0.9429751414 Rate of Right Ascen(r/s): -8.526069431e-09 SQRT(A) (m 1/2): 5153.633789 Right Ascen at Week(rad): 1.713803334 Argument of Perigee(rad): 0.5309644552 Mean Anom(rad): -2.279236293 Af0(s): 0.0003753298096 Af1(s/s): -7.275958e-12 week: 362 ******** Week 362 almanac for PRN-9 ******** ID: 9 Health: 0 Eccentricity: 0.00334072113 Time of Applicability(s): 503808 Orbital Inclination(rad): 0.9646126595 Rate of Right Ascen(r/s): -8.160339911e-09 SQRT(A) (m 1/2): 5153.70459 Right Ascen at Week(rad): -1.406035331 Argument of Perigee(rad): 2.061235377 Mean Anom(rad): -1.683224461 Af0(s): 0.0006052004761 Af1(s/s): -3.637979e-12 week: 362 ******** Week 362 almanac for PRN-10 ******** ID: 10 Health: 0 Eccentricity: 0.01092433929 Time of Applicability(s): 503808 Orbital Inclination(rad): 0.9931950359 Rate of Right Ascen(r/s): -7.406022776e-09 SQRT(A) (m 1/2): 5153.611816 Right Ascen at Week(rad): -2.414504861 Argument of Perigee(rad): -2.256023598 Mean Anom(rad): -0.2593453682 Af0(s): -0.0004665244019 Af1(s/s): 0 week: 362 ******** Week 362 almanac for PRN-11 ******** ID: 11 Health: 0 Eccentricity: 0.002215862274 Time of Applicability(s): 503808 Orbital Inclination(rad): 0.963785748 Rate of Right Ascen(r/s): -7.977475151e-09 SQRT(A) (m 1/2): 5153.534668 Right Ascen at Week(rad): 2.853440581 Argument of Perigee(rad): -2.308947808 Mean Anom(rad): -3.132207509 Af0(s): -0.0003165432129 Af1(s/s): 1.455192e-11 week: 362 ******** Week 362 almanac for PRN-12 ******** ID: 12 Health: 0 Eccentricity: 0.008985996246 Time of Applicability(s): 503808 Orbital Inclination(rad): 0.95930964 Rate of Right Ascen(r/s): -7.817468486e-09 SQRT(A) (m 1/2): 5153.721191 Right Ascen at Week(rad): 0.784613946 Argument of Perigee(rad): 1.566602598 Mean Anom(rad): 0.5064140215 Af0(s): -0.0004800905395 Af1(s/s): 0 week: 362 ******** Week 362 almanac for PRN-13 ******** ID: 13 Health: 0 Eccentricity: 0.01004314423 Time of Applicability(s): 503808 Orbital Inclination(rad): 0.9760396179 Rate of Right Ascen(r/s): -8.068907531e-09 SQRT(A) (m 1/2): 5153.610352 Right Ascen at Week(rad): -1.230620733 Argument of Perigee(rad): 0.9947071459 Mean Anom(rad): -2.51669547 Af0(s): 0.0005396308105 Af1(s/s): 0 week: 362 ******** Week 362 almanac for PRN-14 ******** ID: 14 Health: 0 Eccentricity: 0.006820201874 Time of Applicability(s): 503808 Orbital Inclination(rad): 0.9426755358 Rate of Right Ascen(r/s): -7.931758961e-09 SQRT(A) (m 1/2): 5153.609375 Right Ascen at Week(rad): 0.7296962354 Argument of Perigee(rad): -2.742946027 Mean Anom(rad): 0.3626362792 Af0(s): 0.0005848512695 Af1(s/s): 0 week: 362 ******** Week 362 almanac for PRN-15 ******** ID: 15 Health: 0 Eccentricity: 0.01662826538 Time of Applicability(s): 503808 Orbital Inclination(rad): 0.9425437093 Rate of Right Ascen(r/s): -8.354633718e-09 SQRT(A) (m 1/2): 5153.637207 Right Ascen at Week(rad): -1.550577816 Argument of Perigee(rad): 1.504741152 Mean Anom(rad): 3.009540728 Af0(s): 0.0003127748413 Af1(s/s): 3.637979e-12 week: 362 ******** Week 362 almanac for PRN-16 ******** ID: 16 Health: 0 Eccentricity: 0.01502609253 Time of Applicability(s): 503808 Orbital Inclination(rad): 0.9584108231 Rate of Right Ascen(r/s): -7.840326581e-09 SQRT(A) (m 1/2): 5153.613281 Right Ascen at Week(rad): 0.8015570185 Argument of Perigee(rad): 0.9317682437 Mean Anom(rad): -1.243577552 Af0(s): 0.0001816355103 Af1(s/s): 7.275958e-12 week: 362 ******** Week 362 almanac for PRN-17 ******** ID: 17 Health: 0 Eccentricity: 0.0126247406 Time of Applicability(s): 503808 Orbital Inclination(rad): 0.9586265391 Rate of Right Ascen(r/s): -8.400349908e-09 SQRT(A) (m 1/2): 5153.543457 Right Ascen at Week(rad): 1.818840946 Argument of Perigee(rad): -1.119295523 Mean Anom(rad): -2.333835298 Af0(s): -7.310640869e-05 Af1(s/s): -1.091394e-11 week: 362 ******** Week 362 almanac for PRN-18 ******** ID: 18 Health: 0 Eccentricity: 0.005789756775 Time of Applicability(s): 503808 Orbital Inclination(rad): 0.9718691077 Rate of Right Ascen(r/s): -7.908900866e-09 SQRT(A) (m 1/2): 5153.588867 Right Ascen at Week(rad): 2.829762374 Argument of Perigee(rad): -2.866077571 Mean Anom(rad): 1.961928472 Af0(s): -0.0003135285156 Af1(s/s): 1.091394e-11 week: 362 ******** Week 362 almanac for PRN-19 ******** ID: 19 Health: 0 Eccentricity: 0.01121091843 Time of Applicability(s): 503808 Orbital Inclination(rad): 0.9577996276 Rate of Right Ascen(r/s): -8.400349908e-09 SQRT(A) (m 1/2): 5153.665527 Right Ascen at Week(rad): 1.862740285 Argument of Perigee(rad): 2.938565279 Mean Anom(rad): -0.5388317244 Af0(s): 0.0005486749023 Af1(s/s): 0 week: 362 ******** Week 362 almanac for PRN-20 ******** ID: 20 Health: 0 Eccentricity: 0.002253055572 Time of Applicability(s): 503808 Orbital Inclination(rad): 0.9600167092 Rate of Right Ascen(r/s): -8.206056101e-09 SQRT(A) (m 1/2): 5153.692871 Right Ascen at Week(rad): -1.400507233 Argument of Perigee(rad): -1.974794661 Mean Anom(rad): 0.4702632325 Af0(s): 5.04961792e-05 Af1(s/s): 2.182787e-11 week: 362 ******** Week 362 almanac for PRN-21 ******** ID: 21 Health: 0 Eccentricity: 0.0007853507996 Time of Applicability(s): 503808 Orbital Inclination(rad): 0.9630666945 Rate of Right Ascen(r/s): -7.760323248e-09 SQRT(A) (m 1/2): 5153.728516 Right Ascen at Week(rad): -2.406293794 Argument of Perigee(rad): -0.27151048 Mean Anom(rad): 0.1637906489 Af0(s): 0.0003240799561 Af1(s/s): 3.637979e-12 week: 362 ******** Week 362 almanac for PRN-22 ******** ID: 22 Health: 0 Eccentricity: 0.01205301285 Time of Applicability(s): 503808 Orbital Inclination(rad): 0.9578595487 Rate of Right Ascen(r/s): -7.817468486e-09 SQRT(A) (m 1/2): 5153.581055 Right Ascen at Week(rad): 0.8049111034 Argument of Perigee(rad): -0.9935787562 Mean Anom(rad): -1.687014847 Af0(s): -2.487125244e-05 Af1(s/s): 7.275958e-12 week: 362 ******** Week 362 almanac for PRN-23 ******** ID: 23 Health: 0 Eccentricity: 0.006055831909 Time of Applicability(s): 503808 Orbital Inclination(rad): 0.9881976141 Rate of Right Ascen(r/s): -7.451738966e-09 SQRT(A) (m 1/2): 5153.66748 Right Ascen at Week(rad): -2.446666776 Argument of Perigee(rad): -2.739805036 Mean Anom(rad): 0.8183667664 Af0(s): 0.0004951640259 Af1(s/s): 3.637979e-12 week: 362 ******** Week 362 almanac for PRN-24 ******** ID: 24 Health: 0 Eccentricity: 0.01793575287 Time of Applicability(s): 503808 Orbital Inclination(rad): 0.935173411 Rate of Right Ascen(r/s): -8.206056101e-09 SQRT(A) (m 1/2): 5153.587402 Right Ascen at Week(rad): -0.4416610072 Argument of Perigee(rad): 1.137786058 Mean Anom(rad): 2.167078179 Af0(s): -5.803292236e-05 Af1(s/s): 1.818989e-11 week: 362 ******** Week 362 almanac for PRN-25 ******** ID: 25 Health: 0 Eccentricity: 0.01291561127 Time of Applicability(s): 503808 Orbital Inclination(rad): 0.9477268866 Rate of Right Ascen(r/s): -7.886042771e-09 SQRT(A) (m 1/2): 5153.672852 Right Ascen at Week(rad): 0.6906018212 Argument of Perigee(rad): 1.159521322 Mean Anom(rad): 0.3822817944 Af0(s): 0.0003444291626 Af1(s/s): -3.637979e-12 week: 362 ******** Week 362 almanac for PRN-26 ******** ID: 26 Health: 0 Eccentricity: 0.01100873947 Time of Applicability(s): 503808 Orbital Inclination(rad): 0.9285461346 Rate of Right Ascen(r/s): -8.023191341e-09 SQRT(A) (m 1/2): 5153.679199 Right Ascen at Week(rad): 0.6157509739 Argument of Perigee(rad): 0.7116476181 Mean Anom(rad): -0.4381518764 Af0(s): -0.0002713227539 Af1(s/s): -3.637979e-12 week: 362 ******** Week 362 almanac for PRN-27 ******** ID: 27 Health: 0 Eccentricity: 0.01437664032 Time of Applicability(s): 503808 Orbital Inclination(rad): 0.952065176 Rate of Right Ascen(r/s): -8.434637051e-09 SQRT(A) (m 1/2): 5153.608887 Right Ascen at Week(rad): 1.746007568 Argument of Perigee(rad): 0.8876513157 Mean Anom(rad): -2.175067163 Af0(s): -5.9540271e-05 Af1(s/s): -1.455192e-11 week: 362 ******** Week 362 almanac for PRN-28 ******** ID: 28 Health: 0 Eccentricity: 0.0004353523254 Time of Applicability(s): 503808 Orbital Inclination(rad): 0.9621558934 Rate of Right Ascen(r/s): -7.897471818e-09 SQRT(A) (m 1/2): 5153.75293 Right Ascen at Week(rad): -0.3584024772 Argument of Perigee(rad): -0.1120525029 Mean Anom(rad): 1.611658415 Af0(s): -0.0004537119385 Af1(s/s): 7.275958e-12 week: 362 ******** Week 362 almanac for PRN-29 ******** ID: 29 Health: 0 Eccentricity: 0.003429889679 Time of Applicability(s): 503808 Orbital Inclination(rad): 0.961281045 Rate of Right Ascen(r/s): -8.366062766e-09 SQRT(A) (m 1/2): 5153.692383 Right Ascen at Week(rad): 1.835624479 Argument of Perigee(rad): 2.74414782 Mean Anom(rad): -2.318605595 Af0(s): -0.00028112052 Af1(s/s): 7.275958e-12 week: 362 ******** Week 362 almanac for PRN-30 ******** ID: 30 Health: 0 Eccentricity: 0.008131980896 Time of Applicability(s): 503808 Orbital Inclination(rad): 0.9364976678 Rate of Right Ascen(r/s): -8.137481816e-09 SQRT(A) (m 1/2): 5153.692383 Right Ascen at Week(rad): -0.3421192861 Argument of Perigee(rad): -2.306752448 Mean Anom(rad): 0.9933930007 Af0(s): 0.0001258636108 Af1(s/s): 1.455192e-11 week: 362 ******** Week 362 almanac for PRN-31 ******** ID: 31 Health: 0 Eccentricity: 0.01083850861 Time of Applicability(s): 503808 Orbital Inclination(rad): 0.9550073032 Rate of Right Ascen(r/s): -7.943188008e-09 SQRT(A) (m 1/2): 5153.524414 Right Ascen at Week(rad): -0.30857207 Argument of Perigee(rad): 0.9387831348 Mean Anom(rad): 0.09574609239 Af0(s): -0.0001266172852 Af1(s/s): 3.637979e-12 week: 362 ******** Week 362 almanac for PRN-32 ******** ID: 32 Health: 0 Eccentricity: 0.009372234344 Time of Applicability(s): 503808 Orbital Inclination(rad): 0.9676446684 Rate of Right Ascen(r/s): -8.126052768e-09 SQRT(A) (m 1/2): 5153.676758 Right Ascen at Week(rad): -1.388964177 Argument of Perigee(rad): -1.990182031 Mean Anom(rad): -1.609810597 Af0(s): -3.090064697e-05 Af1(s/s): 1.818989e-11 week: 362